Regional Weather Roundup
Issued by NWS Wakefield, VA

Home | Current Version | Previous Version | Text Only | Print | Product List | Glossary Off
Versions: 1 2 3 4 5 6 7 8 9 10 11 12 13 14 15 16 17 18 19 20 21 22 23 24 25 26 27 28 29 30 31 32 33 34 35 36 37 38 39 40 41 42 43 44 45 46 47 48 49 50

000
ASUS41 KAKQ 280710
RWRAKQ

REGIONAL WEATHER ROUNDUP
NATIONAL WEATHER SERVICE WAKEFIELD VA
300 AM EDT MON JUL 28 2014

Note: "fair" indicates few or no clouds below 12,000 feet with no
significant weather and/or obstructions to visibility. * = Denotes
station may not report precipitation (e.g., rain,snow,etc.),
thunder or fog.

VAZ042-051-052>054-056-280800-
NORTHERN VIRGINIA

CITY           SKY/WX    TMP DP  RH WIND       PRES   REMARKS
WASH NATIONAL  CLOUDY    78  71  79 W6        29.60F
DULLES         CLOUDY    69  65  86 CALM      29.62S
FORT BELVOIR   CLOUDY    76  72  88 W5        29.62R
QUANTICO       CLOUDY    78  71  79 W7        29.61F
FREDERICKSBRG* CLOUDY    78  73  84 SW7       29.60F
STAFFORD*      CLOUDY    76  76 100 SW3       29.65F
WARRENTON      CLOUDY    75  75 100 SW3       29.62R
CULPEPER*      CLOUDY   N/A N/A N/A CALM      29.62F
MANASSAS*      CLOUDY    70  68  94 CALM      29.61F
LEESBURG*      CLOUDY    68  68 100 CALM      29.62F
WINCHESTER     MOCLDY    66  64  94 CALM      29.64S
$$

VAZ048-049-060>072-079>083-280800-
CENTRAL AND SOUTH CENTRAL VIRGINIA...AND NORTH CENTRAL NORTH CAROLINA

CITY           SKY/WX    TMP DP  RH WIND       PRES   REMARKS
RICHMOND       MOCLDY    79  71  76 SW12      29.64F
CHESTERFIELD*  MOSUNNY   77  64  65 SW7       29.67S
HANOVER        MOCLDY    79  71  76 SW9       29.65F
TAPPAHANNOCK*  MOCLDY    77  70  80 S8        29.64R
CHARLOTTSVILLE CLOUDY    77  64  64 VRB7      29.63F
ORANGE*        CLOUDY    73  70  88 S5        29.64F
LOUISA*        MOCLDY    75  72  88 SW5       29.63S
FARMVILLE*     PTCLDY    75  72  88 SW7       29.66S
SOUTH HILL*    MOCLDY    77  75  94 SW6       29.76R
ROANOKE RAPIDS NOT AVBL
RALEIGH        CLOUDY    82  69  64 W13G21    29.77R
$$

VAZ088>098-280800-
SOUTHEAST VIRGINIA

CITY           SKY/WX    TMP DP  RH WIND       PRES   REMARKS
NORFOLK        PTCLDY    78  72  81 SW13      29.66F
VIRGINIA BEACH PTCLDY    79  73  82 SW14      29.66F
NORFOLK NAVAL  PTCLDY    80  73  79 S13G20    29.67F
WEST POINT*    CLEAR     80  72  77 SW9       29.65F
NEWPORT NEWS   PTCLDY    82  73  74 SW16      29.65F
LANGLEY AFB    PTCLDY    80  74  81 SW12G17   29.65F
FORT EUSTIS    PTCLDY    79  76  92 SW9       29.63F
WILLIAMSBURG*  PTCLDY    81  73  78 SW6       29.66S
FRANKLIN*      PTCLDY    79  73  83 SW9       29.68F
WAKEFIELD      PTCLDY    77  72  84 SW6       29.67F
$$

VAZ020-022-025-037-045-280800-
WESTERN AND SOUTHWEST VIRGINIA

CITY           SKY/WX    TMP DP  RH WIND       PRES   REMARKS
STAUNTON*      CLOUDY    76  60  57 W7        29.70R
HOT SPRINGS VA MOCLDY    60  58  92 W20G26    29.85F
LYNCHBURG      PTCLDY    75  66  73 SW8       29.73S
DANVILLE       CLOUDY    79  65  62 SW14      29.75R
MARTINSVILLE   CLOUDY    75  64  67 SW8       29.79F
ROANOKE        MOCLDY    74  64  71 W13G23    29.77F
BLACKSBURG     MOCLDY    68  66  94 W6          N/A
DUBLIN*        CLOUDY    69  66  90 W3        29.85F
MARION*        RAIN     N/A N/A N/A W17G28    29.93R
HILLSVILLE*    CLOUDY    66  62  87 SW6       29.87F
RICHLANDS*     LGT RAIN  66  64  92 W7        29.92S
WISE*          CLOUDY    64  64 100 SW6       29.96F
ABINGDON*      DRIZZLE   67  67  97 W7        29.93R
$$

MDZ021>025-VAZ099-100-280800-
SOUTHERN MARYLAND AND THE DELMARVA PENINSULA

CITY           SKY/WX    TMP DP  RH WIND       PRES   REMARKS
PATUXENT RIVER MOCLDY    78  71  79 SW13      29.59F
BAY BRIDGE APT   N/A     79  72  78 SW7       29.59F
LEONARDTOWN    MOCLDY    77  70  78 SW9       29.62S
DOVER          CLOUDY    75  75  98 S8        29.58S
GEORGETOWN     MOCLDY    74  71  91 S8        29.61F
EASTON         MOCLDY    77  77 100 CALM      29.63F
CAMBRIDGE      MOCLDY    79  70  73 SW6       29.59F
SALISBURY      NOT AVBL
OCEAN CITY     PTCLDY    75  73  93 VRB5      29.61F
WALLOPS ISLAND CLEAR     77  73  87 SW10      29.62F
ACCOMACK*        N/A     79  70  73 SW13G21   29.63F
$$

NCZ012>017-030>032-280800-
EASTERN NORTH CAROLINA

CITY           SKY/WX    TMP DP  RH WIND       PRES   REMARKS
ELIZABETH CITY PTCLDY    80  74  81 SW14G21   29.70F
AHOSKIE*       MOCLDY    77  72  84 CALM      29.70S
EDENTON*       PTCLDY    81  74  79 SW13      29.71F
CURRITUCK*     PTCLDY    80  72  76 S5        29.70F
KILL DEVIL HLS PTCLDY    80  76  86 SW8       29.71F
MANTEO         NOT AVBL
CAPE HATTERAS  PTCLDY    81  79  94 SW15      29.77F
GOLDSBORO      CLOUDY    81  77  89 W6        29.72F
WASHINGTON     MOCLDY    79  74  84 SW8       29.74F
GREENVILLE     CLOUDY    81  73  78 SW8       29.76S
NEW BERN       MOCLDY    83  75  77 SW6       29.77F
WILMINGTON     MOCLDY    84  75  74 SW13      29.79F
$$

VAZ048-280800-
ELSEWHERE

CITY           SKY/WX    TMP DP  RH WIND       PRES   REMARKS
HARRISBURG PA  CLOUDY    68  64  87 W5        29.58S
BALTIMORE      CLOUDY    70  68  93 CALM      29.59F
ANNAPOLIS      MOCLDY    76  72  87 CALM      29.58F
ANDREWS AFB    CLOUDY    77  73  86 SW8       29.60S
WILMINGTON DE  CLOUDY    69  67  93 CALM      29.58F
PHILADELPHIA   CLOUDY    70  66  87 E6        29.58F
WILDWOOD NJ*   CLOUDY    73  70  88 S10       29.61F
ATLANTIC CITY  CLOUDY    73  64  73 NW14      29.62S
HENDERSON NC   CLOUDY    78  68  71 SW12      29.74R
GREENSBORO     LGT RAIN  73  67  81 SW16G23   29.81S
ROCKY MOUNT    CLOUDY    78  73  84 SW7       29.73F
FAYETTEVILLE   CLOUDY    85  72  65 W14G24    29.78R
CHARLOTTE      CLOUDY    73  67  81 N6        29.89S
$$

VAZ100-280800-
MARINE

STATION/POSITION TIME  TEMP    WIND        PRES    WAVE   SWELL
                       AIR SEA DIR/SP/G            HT/PER HT/PER
                 (UTC) (F)     (DEG/KT/KT) (MB)    (FT/S) (FT/S)
44066 TX TWR #4  0700   75 74  200/ 14/ 17 1003.6F   4/ 5   2/10
CAPE MAY NJ      0700   74 78  160/  8/ 10 1002.0F
LEWES DE         0700   77 71  220/  5/  8 1002.2S
15NM E FENWICK I 0700   77 74              1002.7F   3/ 4
OCEAN-CITY-INLET 0700   71 70  210/ 11/ 12 1002.1S
WACHAPREAGUE VA  0700   79 80  220/  6/  9 1003.4S
THOMAS POINT MD  0700   78 79  230/ 10/ 11 1002.4F
GOOSES REEF MD   0700   80     250/ 16/ 19 1002.2S
COVE POINT MD    0700   79     270/ 16/ 20 1001.9R
SOLOMONS ISLAND  0700      80                N/A
BISHOPS HEAD MD  0700   80 78  230/ 19/ 22 1001.4R
PINEY POINT MD   0700          260/  7/  9   N/A
POTOMAC MD       0700   80     240/ 16/ 21 1001.5F
CAMBRIDGE MD     0700   79 80  220/  4/  6 1001.7F
LEWISETTA VA     0700   78 80  240/ 12/ 16 1002.3R
RAPPAHANNOCK LGT 0700          210/ 17/ 19 1003.7F
STINGRAY PT      0700   80     240/ 16/ 17 1004.0F
YORK RVR RNG VA  0700   81     240/ 17/ 20 1002.9F
YORKTOWN VA      0700   80 80  220/ 11/ 14 1003.3F
JAMESTOWN VA     0700   78     230/ 12/ 16   N/A
DOMINION TERM VA 0700   80     220/ 15/ 18 1004.2F
KIPTOPEKE VA     0700      81  230/ 17/ 22   N/A
CHES BAY BRIDGE  0700   80 78  200/ 19/ 21 1003.3F
CAPE HENRY VA    0700   79     200/ 11/ 18 1003.2F
WILLOUBY STN VA  0700          230/ 19/ 21 1003.3F
S CRANEY ISL VA  0700          210/  9/ 13 1004.4F
CAPE HENRY BUOY  0700      77                N/A     3/ 4
1ST LANDING BUOY 0700   81     220/ 19/ 23 1004.2F
CAPE CHARLES BUO 0700      76                N/A     3/ 4
OFFSHORE WE BUOY 0700      78                N/A     3/ 5
64NM E OF VA BCH 0700   80 78  200/ 17/ 21 1005.3F   3/ 5   2/10
DUCK PIER NC     0700   82 69  210/ 16/ 22 1005.2F
44056 DUCK FRF   0600                        N/A     2/10
OREGON INLET NC  0700   82 82  200/ 20/ 23 1006.6F
HATTERAS NC      0700   81 82  220/ 12/ 19 1008.6F
DIAMOND SHLS NC  0700          VRB 21/ 25  1008.2F   5/ 5   2/10
CAPE LOOKOUT NC  0600   82     220/ 13/ 19 1009.3F
$$



USA.gov is the U.S. government's official web portal to all federal, state and local government web resources and services.